www.pogodaiklimat.ru

Погода и климат >> Архив погоды >> Россия >> Ямало-Ненецкий АО >> Новый Порт


АРХИВ ПОГОДЫ в Новом Порте

Время (UTC), дата Ветер
(напр.,м/с)
 
Видим.   Явления Облачность Т
(С)
Тd
(С)
f
(%)
Тe
(С)
Тes
(С)
Комфортность P
(гПа)
Po
(гПа)
Тmin
(С)
Tmax
(С)
R
(мм)
R24
(мм)
S
(см)
00 18.05 В 7
{11}
10 км 8/0
[Ac trans Ci fib]
-1.8 -4.3 83 -9 -9 1008.9 1007.3
03 18.05 В 6
{11}
10 км 8/0
[Ac trans Ci fib]
0.0 -2.9 81 -7 -5 1008.2 1006.6 -2.4 33
06 18.05 В 8
{11}
10 км 8/0
[Ac trans Ci fib]
+1.4 -1.8 79 -6 -4 1007.7 1006.2
12 18.05 В 6
{10}
10 км 3/0
[As trans]
+1.7 -0.9 83 -4 -3 1009.0 1007.5
15 18.05 В 7
{11}
10 км ясно +1.0 -1.4 84 -6 -6 1009.4 1007.9 +1.9
18 18.05 В 7
{10}
10 км ясно +0.3 -2.3 83 -7 -7 1009.1 1007.5
00 19.05 СВ 7
{11}
10 км ясно -1.2 -3.7 83 -9 -8 1007.7 1006.1
03 19.05 СВ 8
{13}
10 км 8/0
[Ac trans]
-0.7 -3.4 82 -8 -8 1006.3 1004.8 -1.7 32
06 19.05 СВ 9
{14}
10 км 8/4 300 м
[Sc Ac trans]
+0.4 -2.7 80 -7 -7 1005.4 1003.9
12 19.05 СВ 8
{15}
4000 м слаб. ливневой снег 10/10 240 м
[Cb cap]
+0.1 -1.0 92 -8 -8 1005.1 1003.5
15 19.05 С 8
{16}
4000 м слаб. ливневой снег 10/10 330 м
[Cb cap]
0.0 -0.3 98 -8 -8 1004.6 1003.0 +0.9 0.4
18 19.05 СВ 8
{13}
10 км {ливн. осадки} 9/6 420 м
[Cu hum Ac trans]
-1.0 -1.8 94 -9 -9 1003.6 1002.1
00 20.05 СВ 8
{16}
4000 м слаб. ливневой снег 10/10 270 м
[Cb cap]
-3.8 -4.8 93 -12 -12 1002.0 1000.5
03 20.05 СВ 8
{14}
4000 м слаб. ливневой снег 10/10 270 м
[Cb cap]
-3.7 -4.7 93 -12 -12 1002.2 1000.6 -4.3 0.4 23
06 20.05 С 6
{13}
10 км в посл. час ливневой дождь 10/10 240 м
[Cu hum]
-3.5 -5.0 89 -11 -11 1002.4 1000.9
12 20.05 СВ 6 10 км {ливн. осадки} 8/8 300 м
[Sc]
-1.3 -3.2 87 -8 -8 1005.7 1004.2
15 20.05 СВ 8
{11}
10 км 10/10 300 м
[Sc]
-3.3 -5.3 86 -12 -12 1006.5 1004.9 -1.2 0.6
18 20.05 СВ 3
{11}
10 км 3/0
[Ci fib]
-6.8 -8.8 86 -13 -13 1007.4 1005.8
00 21.05 С 4 10 км 8/0
[Ac trans Ci fib]
-9.4 -11.8 83 -16 -16 1008.6 1007.0
03 21.05 С 4 10 км 4/0
[Ci fib]
-6.8 -9.8 79 -13 -10 1009.1 1007.5 -9.8 20
06 21.05 С 8
{11}
10 км 3/0
[Ci fib]
-3.4 -6.8 77 -12 -10 1009.3 1007.8
12 21.05 С 8
{13}
10 км 3/0
[Ac trans]
-2.8 -5.3 83 -11 -10 1010.4 1008.9
15 21.05 С 8
{13}
10 км 1/0
[Ac trans]
-3.3 -5.6 84 -12 -12 1010.2 1008.6 -2.1
18 21.05 С 9
{13}
10 км 10/10 360 м
[Cu Sc]
-5.2 -6.3 92 -15 -15 1010.2 1008.6
00 22.05 С 6
{12}
4000 м слаб. ливневой снег {метель} 10/9 300 м
[Cb cap Ac und]
-6.0 -6.8 94 -14 -14 1009.7 1008.1
03 22.05 С 5
{11}
4000 м слаб. ливневой снег {метель} 10/10 210 м
[Cb cap]
-6.0 -6.9 93 -13 -13 1009.2 1007.6 -6.4 0.2 20
06 22.05 СЗ 6 4000 м слаб. ливневой снег {метель} 10/10 210 м
[Cb cap]
-4.7 -6.1 90 -13 -13 1009.4 1007.8
12 22.05 С 4 10 км 10/10 270 м
[St]
-3.3 -5.6 84 -9 -9 1009.7 1008.1
15 22.05 С 4 10 км 10/10 270 м
[St]
-3.5 -5.2 88 -10 -10 1009.4 1007.8 -3.3 0.0
18 22.05 С 2 10 км 10/10 360 м
[Sc]
-3.9 -5.7 87 -8 -8 1008.9 1007.3
00 23.05 З 2 10 км 10/10 420 м
[Sc]
-3.3 -5.3 86 -7 -7 1008.1 1006.5
03 23.05 СЗ 2 10 км 9/8 330 м
[Cu Sc Ac trans]
-2.5 -5.2 82 -6 -6 1007.8 1006.2 -4.0 20
06 23.05 С 2 10 км 9/3 300 м
[Cu hum Ac trans]
-1.0 -5.2 73 -5 -1 1007.5 1005.9
12 23.05 ЮВ 2 10 км 9/8 480 м
[Cu hum Ac trans]
-1.4 -5.4 74 -5 -4 1007.7 1006.1
15 23.05 В 2 10 км 8/3 300 м
[Cu hum Ac trans Ci fib]
-3.0 -5.0 86 -7 -7 1007.0 1005.5 -0.3
18 23.05 В 3 10 км 9/0
[Ac trans]
-3.4 -5.7 84 -9 -9 1005.6 1004.0
00 24.05 В 9
{14}
10 км 10/10 420 м
[Cu Sc]
-3.6 -4.9 91 -13 -13 999.6 998.0
03 24.05 В 12
{19}
1000 м метель {ливн. осадки} ?/? -4.1 -4.8 95 -14 -14 993.9 992.4 -4.4 0.4 20
06 24.05 В 17
{22}
200 м метель {ливн. осадки} ?/? -0.7 -0.7 100 -11 -11 990.3 988.8
12 24.05 Ю 6
{12}
10 км слаб. ливневой дождь {метель} 10/10 330 м
[Cb cap]
+1.2 +1.1 99 -5 -5 989.3 987.8
15 24.05 Ю 4 10 км {ливн. осадки} 10/0
[Ac und]
+0.3 +0.1 99 -5 -5 990.9 989.4 +1.3 4
18 24.05 Ю 5
{10}
10 км {ливн. осадки} 10/0
[Ac und]
-0.4 -2.9 83 -7 -7 991.9 990.4

 

Местоположение метеостанции Новый Порт (Ямало-Ненецкий АО, Россия): широта 67.68 долгота 72.88 высота над уровнем моря 12 м.

В архиве по умолчанию представлена погода в Новом Порте за последнюю неделю. Архивные данные за месяц целиком и за предыдущие месяцы, начиная с января 2011 года, Вы можете получить, выбрав интересующий диапазон дат из раскрывающегося списка и нажав кнопку "Ввод!".


*Определитесь, кто Вы:
робот инопланетянин человек

Внимание! Время в таблицах - всемирное. Для получения местного времени необходимо прибавить поправку, которая равна 5 ч.

Смотрите также архив погоды в соседних городах и на ближайших метеорологических станциях:

Погода в Ныде (Ямало-Ненецкий АО, Россия) (117 км)
Погода в Пангодах (Ямало-Ненецкий АО, Россия) (218 км)
Погода в Белоярске (Ямало-Ненецкий АО, Россия) (223 км)
Погода в Антипаюте (Ямало-Ненецкий АО, Россия) (225 км)
Погода в Новом Уренгое (Ямало-Ненецкий АО, Россия) (245 км)
Погода в Надыме (Ямало-Ненецкий АО, Россия) (246 км)
Погода в Тазовском (Ямало-Ненецкий АО, Россия) (249 км)
Погода в Полуе (Ямало-Ненецкий АО, Россия) (260 км)
Погода в Сеяхе (Ямало-Ненецкий АО, Россия) (277 км)
Погода в Салехарде (Ямало-Ненецкий АО, Россия) (297 км)

Пояснения к столбцам:

Ветер - указаны скорость ветра в м/с - средняя за 10 мин, порывы в срок и между сроками (в фигурных скобках) и направление, откуда дует ветер: С - северный, СВ - северо-восточный, В - восточный, ЮВ - юго-восточный, Ю - южный, ЮЗ - юго-западный, З - западный, СЗ - северо-западный.
Видимость - горизонтальная дальность видимости в метрах или километрах. При видимости от 1 до 10 км при отсутствии осадков обычно наблюдается дымка, при ухудшении видимости до 1 км и менее - туман. В сухую погоду видимость может ухудшаться дымом, пылью или мглою.
Явления - указаны атмосферные явления, наблюдавшиеся в срок или в последний час перед сроком; фигурными скобками обозначены явления, наблюдавшиеся между сроками (за 1-3 часа до срока); квадратными скобками обозначены град или гололедные отложения с указанием их диаметра в мм.
Облачность - указаны через наклонную черту общая и нижняя облачность в баллах и высота нижней границы облаков в метрах; квадратными скобками обозначены формы облаков: Ci - перистые, Cs - перисто-слоистые, Cc - перисто-кучевые, Ac - высококучевые, As - высокослоистые, Sc - слоисто-кучевые, Ns - слоисто-дождевые, Cu - кучевые, Cb - кучево-дождевые. Подробнее классификацию облаков см. в Атласе облаков (PDF).
T - Температура воздуха - температура, измеренная на высоте 2 м над землей.
Td - Температура точки росы - температура, при понижении до которой содержащийся в воздухе водяной пар достигнет насыщения.
f - Относительная влажность воздуха - влажноcть воздуха, измеренная на высоте 2 м над землей.
Te - Эффективная температура - температура, которую ощущает одетый по сезону человек в тени. Характеристика душности погоды. При расчете учитывается влияние влажности воздуха и скорости ветра на теплоощущения человека.
Tes - Эффективная температура на солнце - температура, которую ощущает человек, с поправкой на солнечный нагрев. Характеристика знойности погоды. Зависит от высоты солнца над горизонтом, облачности и скорости ветра. Ночью, в пасмурную погоду, а также при ветре 12 м/с и более поправка равна нулю.
P - Атмосферное давление - приведенное к уровню моря атмосферное давление.
Po - Атмосферное давление - измеренное на уровне метеостанции атмосферное давление.
Tmin - Минимальная температура - минимум температуры воздуха на высоте 2 м над землей.
Tmax - Максимальная температура - максимум температуры воздуха на высоте 2 м над землей.
R - Количество осадков - Количество выпавших осадков за период времени, мм. При наведении курсора мыши на число - период времени, за который выпало указанное количество осадков.
R24 - Количество осадков - Количество выпавших осадков за 24 часа, мм.
S - Снежный покров - Высота снежного покрова, см. При наведении курсора мыши на число - состояние снежного покрова и степень покрытия местности в баллах.